Location: Beau Repaire
(50.6144°N, 4.0551°E)
Time: 20:49:11
(UTC+00:00)

USA 290 - Pass Details

Date: 15 May 2026
Orbit: 396 x 415 km, 73.6° (Epoch: 30 October)

Event Time Altitude Azimuth Distance (km) Brightness Sun altitude
Exits shadow 21:18:07 26° 171° (S) 823 3.2 -13.7°
Maximum altitude 21:19:33 48° 110° (ESE) 527 2.4 -13.8°
Drops below altitude 10° 21:22:35 10° 35° (NE) 1,435 5.2 -14.1°
Sets 21:24:39 0° 30° (NNE) 2,295 6.4 -14.2°
